Regional Weather Roundup
Issued by NWS Grand Forks, ND

Home | Current Version | Previous Version | Graphics & Text | Print | Product List | Glossary On
Versions: 1 2 3 4 5 6 7 8 9 10 11 12 13 14 15 16 17 18 19 20 21 22 23 24 25 26 27 28 29 30 31 32 33 34 35 36 37 38 39 40 41 42 43 44 45 46 47 48 49 50
000
ASUS43 KFGF 191710
RWRFGF
PRAIRIE TO PINES  WEATHER ROUNDUP
NATIONAL WEATHER SERVICE EASTERN NORTH DAKOTA/GRAND FORKS ND
1200 PM CDT FRI SEP 19 2014

 **SATELLITE DATA USED TO AUGMENT SKY COVER AT AUTOMATED STATIONS**
 *****  WEATHER ACROSS EASTERN NORTH DAKOTA  *****

CITY           SKY/WX    TMP DP  RH WIND       PRES   REMARKS
GRAND FORKS    LGT RAIN  66  63  90 S7        29.57R
GRAND FRKS AFB TSTM      66  66 100 E3        29.53F FOG
GRAND FRKS NWS   N/A     64 N/A N/A S6          N/A
DEVILS LAKE    PTSUNNY   70  61  73 SW8       29.53R
FARGO          LGT RAIN  67  61  81 S15       29.60F
WAHPETON ARPT  CLOUDY    66  59  77 S14       29.65S
$$

 ***** WEATHER ACROSS CENTRAL AND WESTERN NORTH DAKOTA  *****

CITY           SKY/WX    TMP DP  RH WIND       PRES   REMARKS
BISMARCK       MOSUNNY   77  58  51 W9G21     29.64S
MINOT          SUNNY     77  50  38 W14       29.57S
JAMESTOWN      CLOUDY    75  63  66 W8        29.60R
MINOT AFB      SUNNY     71  54  53 W9        29.56S
GARRISON         N/A     77  51  40 NW18G25   29.61S
WILLISTON      MOSUNNY   77  47  34 W26G36    29.63S
DICKINSON      SUNNY     75  49  39 W20       29.71R
HETTINGER      SUNNY     76  53  44 W14       29.76R
$$

 *****  OTHER AIRPORT OBSERVATIONS IN OUR AREA  *****

CITY           SKY/WX    TMP DP  RH WIND       PRES   REMARKS
WALHALLA         N/A     70  64  83 CALM      29.48F
GRAFTON AIRPOR FAIR      64  64 100 SE10      29.49F
VALLEY CITY AR FAIR      68  68 100 SW15      29.60R
CANDO          FAIR      72  59  64 W13       29.54R
CAVALIER APRT  FAIR      68  64  88 S7        29.48F
GWINNER        PTSUNNY   68  64  88 SW16G22   29.64F
ROLLA          FAIR      72  57  60 W12       29.55R
 ***** THE ABOVE OBSERVATIONS ARE NON NWS ARE NOT QUALITY
       CONTROLLED AND MAY MIS-REPORT RAIN FOR SNOW...
$$

  *****  WEATHER ACROSS NORTHERN MINNESOTA  *****

CITY           SKY/WX    TMP DP  RH WIND       PRES   REMARKS
FLAG ISLAND    LGT RAIN  61  57  88 S7        29.53R
WARROAD        RAIN      63  59  88 SW15G22   29.55R
ROSEAU         CLOUDY    63  57  82 SW16      29.54F
HALLOCK        LGT RAIN  64  63  94 S10       29.50F
THF RVR FALLS  CLOUDY    63  61  94 SW16G22   29.59R
BAUDETTE       LGT RAIN  62  58  86 S16G23    29.55S
WASKISH        LGT RAIN  61  57  88 CALM      29.61F
CROOKSTON      CLOUDY    63  63 100 SW12G17   29.60R
STEPHEN NDAWN    N/A     64  63  94 S12         N/A
GREENBUSH NDAW   N/A    N/A N/A N/A SW10        N/A
$$
  *****  WEATHER ACROSS CENTRAL AND WEST MINNESOTA  *****

CITY           SKY/WX    TMP DP  RH WIND       PRES   REMARKS
FOSSTON        LGT RAIN  61  57  88 S18       29.62F
BEMIDJI        RAIN      61  59  92 SW9       29.64S
PARK RAPIDS    LGT RAIN  62  59  90 S9        29.68S
ELBOW LAKE     CLOUDY    63  60  91 S12       29.69S
WADENA         CLOUDY    63  57  82 S15       29.68R
DETROIT LAKES  CLOUDY    63  59  88 S13       29.67F
MOORHEAD       LGT RAIN  66  64  94 S9        29.63S
FERGUS FALLS   CLOUDY    64  57  77 S14       29.67S
MORRIS MN      CLOUDY    66  63  88 S9        29.69S FOG
STAPLES        DRIZZLE   61  57  88 S9        29.68F
$$
  *****  WEATHER ELSEWHERE ACROSS MINNESOTA  *****

CITY           SKY/WX    TMP DP  RH WIND       PRES   REMARKS
DULUTH         CLOUDY    62  53  72 SW20G29   29.73R
INTRNTL FALLS  CLOUDY    60  57  89 VRB7      29.61S
ELY            LGT RAIN  57  54  88 S13G23    29.68R
CLOQUET        CLOUDY    61  54  77 SW13G18   29.75R
WHEATON        CLOUDY    63  59  88 SE13      29.66F
BRAINERD       LGT RAIN  58  57  97 S10       29.72F VSB 1
HIBBING        CLOUDY    60  55  83 SW10G21   29.70S
ALEXANDRIA     CLOUDY    62  60  93 S15       29.71F FOG
SAINT CLOUD    CLOUDY    65  58  78 S16       29.74S
MINNEAPOLIS    PTSUNNY   71  58  63 S25G32    29.76F
$$

  *****  WEATHER ACROSS SOUTH DAKOTA  *****

CITY           SKY/WX    TMP DP  RH WIND       PRES   REMARKS
SIOUX FALLS    MOSUNNY   78  64  61 S23G32    29.70F
BROOKINGS      NOT AVBL
WATERTOWN      CLOUDY    69  64  84 S13       29.67F
HURON          PTSUNNY   77  63  61 SW9       29.67F
SISSETON         N/A     67  64  90 SW10      29.64F
ABERDEEN       CLOUDY    69  64  84 SW10G18   29.66S
MITCHELL       MOSUNNY   79  65  62 SW12      29.69S
PIERRE         MOSUNNY   78  63  59 W8        29.71S
MOBRIDGE       MOSUNNY   77  66  68 W3        29.65S
RAPID CITY     CLOUDY    81  51  35 NW10      29.84R
$$

  *****  SOME WEATHER IN NEARBY STATES *****

CITY           SKY/WX    TMP DP  RH WIND       PRES   REMARKS
GLASGOW MT     MOSUNNY   71  48  43 NW16      29.74R
GREAT FALLS MT CLOUDY    66  46  48 SW14      29.91R
CHEYENNE WY    SUNNY     80  41  24 W14       30.07S
SCOTTSBLUFF NE MOSUNNY   78  52  40 W7        29.92F
OMAHA NE       MOSUNNY   74  65  73 SE17      29.90F
DES MOINES IA  CLOUDY    74  61  63 S21       29.97F
DAVENPORT IA   SUNNY     72  52  49 S10       30.08F
CHICAGO IL     MOSUNNY   71  51  49 S14G22    30.13F
EAU CLAIRE WI  MOSUNNY   69  55  60 S20G26    29.87F
LA CROSSE WI   MOSUNNY   71  54  54 S21G31    29.94F
$$

  *****  SOME NATIONAL WEATHER *****

CITY           SKY/WX    TMP DP  RH WIND       PRES   REMARKS
LA GUARDIA NY  MOSUNNY   61  44  53 NE16      30.35R
RALEIGH NC     MOSUNNY   77  56  48 E10G20    30.19F
ATLANTA GA     PTSUNNY   80  64  58 E10G18    30.10S
NEW ORLEANS LA PTSUNNY   84  67  56 E9        29.97S
OKLAHOMA CITY  MOSUNNY   82  68  62 SE8       30.01S
ALBUQUERQUE NM PTSUNNY   74  55  51 CALM      30.11F
SALT LAKE CITY MOSUNNY   74  55  51 NW6       30.06R
LOS ANGELES CA PTSUNNY   72  61  68 S5        29.92S
BOISE ID       SUNNY     68  48  48 NW10      30.09R
SEATTLE WA     CLOUDY    66  57  72 S8        30.11R
$$

*** WEATHER ACROSS MANITOBA...SASKATCHEWAN AND ONTARIO ***
                ***ONTARIO***

CITY           SKY/WX    TMP DP  RH WIND       PRES   REMARKS
GERALDTON      SHOWER    52  52 100 SW15      29.71R VSB 1
THUNDER BAY    CLOUDY    57  52  82 SE6       29.73F
SIOUX LOOKOUT  CLOUDY    59  55  88 SW10      29.54R
TORONTO        MOSUNNY   55  41  58 SE14G20   30.32F
BIG TROUT LK   CLOUDY    54  52  94 W8        29.38S
PICKLE LAKE    LGT RAIN  55  54  94 SW9       29.47F FOG
DRYDEN         CLOUDY    59  55  88 SW13G21   29.53S
KENORA         LGT RAIN  61  59  94 S13G21    29.54R
$$
                *** MANITOBA***

CITY           SKY/WX    TMP DP  RH WIND       PRES   REMARKS
BRANDON        PTSUNNY   63  59  88 E6        29.51F
DAUPHIN        PTSUNNY   61  54  77 VRB2      29.54S
ISLAND LAKE    CLOUDY    54  54 100 N5        29.46  FOG
PILOT MOUND    NOT AVBL
THE PAS        NOT AVBL
THOMPSON       DRIZZLE   48  46  93 NW12      29.54
WINNIPEG       LGT RAIN  66  63  88 SW6       29.45F
LYNN LAKE      CLOUDY    48  37  66 N13       29.58R
CHURCHILL      CLOUDY    41  34  75 NW24G30   29.42R
$$
                ***SASKATCHEWAN***

CITY           SKY/WX    TMP DP  RH WIND       PRES   REMARKS
ESTEVAN        MOSUNNY   70  52  52 W14G21    29.59R
KINDERSLEY     NOT AVBL
LLOYDMINSTER   MOSUNNY   63  52  67 W13G18    29.67R
PRINCE ALBERT  CLOUDY    57  54  88 S3        29.63R
REGINA         PTSUNNY   63  55  77 NW9       29.65R
YORKTON        NOT AVBL
N. BATTLEFORD  NOT AVBL
LA RONGE       PTSUNNY   55  52  88 S5        29.61S
SASKATOON      CLOUDY    59  54  82 W9        29.67R
SWIFT CURRENT  SUNNY     63  52  67 NW14      29.71R
$$
NOTE: THESE ARE AUTOMATED STATIONS WITH LIMITED QUALITY CONTROL
      "FAIR" INDICATES FEW OR NO CLOUDS BELOW 12,000 FEET WITH NO
      SIGNIFICANT WEATHER AND/OR OBSTRUCTIONS TO VISIBILITY.
      SKY/WX - SKY CONDITION AND SIGNIFICANT WEATHER.
      TMP - AIR TEMPERATURE.    DP   - DEWPOINT TEMPERATURE.
      RH  - RELATIVE HUMIDITY.  PRES - PRESSURE.
      HX  - HEAT INDEX.         WCI  - WIND CHILL INDEX.
$


USA.gov is the U.S. government's official web portal to all federal, state and local government web resources and services.